GW3529 Weather Reports


time (UTC)temp
C
wind
direction
speed
KPH
gust
KPH
rain 1hr
cm
rain 24hr
cm
rain mn
cm
humidity
%
barometer
mb
20260507144512 12 346 0.0 6.4 0.00 0.00 0.00 31 1011.3
20260507143010 11 87 0.0 1.6 0.00 0.00 0.00 32 1011.4
20260507141509 11 188 0.0 0.0 0.00 0.00 0.00 30 1011.4
20260507140005 10 188 0.0 0.0 0.00 0.00 0.00 34 1011.3
20260507134601 8 188 0.0 0.0 0.00 0.00 0.00 40 1011.3
20260507133058 6 188 0.0 0.0 0.00 0.00 0.00 41 1011.2
20260507131612 3 188 0.0 0.0 0.00 0.00 0.00 49 1011.2
20260507130055 2 188 0.0 0.0 0.00 0.00 0.00 52 1010.9
20260507124555 1 188 0.0 0.0 0.00 0.00 0.00 53 1010.7
20260507123051 1 188 0.0 0.0 0.00 0.00 0.00 54 1010.8
20260507121520 1 188 0.0 0.0 0.00 0.00 0.00 55 1010.6
20260507120018 1 189 0.0 0.0 0.00 0.00 0.00 52 1010.6
20260507114525 1 189 0.0 4.8 0.00 0.00 0.00 51 1010.6
20260507113014 1 188 0.0 4.8 0.00 0.00 0.00 52 1010.3
20260507111521 1 192 0.0 0.0 0.00 0.00 0.00 53 1010.3
20260507110014 1 199 0.0 1.6 0.00 0.00 0.00 53 1010.1
20260507104512 1 200 0.0 0.0 0.00 0.00 0.00 52 1009.9
20260507103011 1 200 0.0 0.0 0.00 0.00 0.00 52 1009.8
20260507101609 1 173 0.0 0.0 0.00 0.00 0.00 50 1009.7
20260507100007 2 172 0.0 3.2 0.00 0.00 0.00 48 1009.8
20260507094506 2 172 0.0 0.0 0.00 0.00 0.00 48 1009.9
20260507093005 2 172 0.0 6.4 0.00 0.00 0.00 47 1009.8
20260507091504 2 172 0.0 0.0 0.00 0.00 0.00 48 1009.7
20260507090005 2 172 0.0 4.8 0.00 0.00 0.00 49 1009.7
20260507084501 1 172 0.0 1.6 0.00 0.00 0.00 49 1009.7
20260507083058 2 172 0.0 4.8 0.00 0.00 0.00 48 1009.6
20260507081556 3 171 0.0 9.7 0.00 0.00 0.00 44 1009.7
20260507080053 2 175 0.0 0.0 0.00 0.00 0.00 48 1009.9
20260507074552 2 177 0.0 0.0 0.00 0.00 0.00 47 1010.1
20260507073049 2 177 0.0 4.8 0.00 0.00 0.00 48 1010.2
20260507071547 3 176 0.0 0.0 0.00 0.00 0.00 42 1010.1
20260507070057 3 172 0.0 0.0 0.00 0.00 0.00 41 1010.2
20260507064542 5 172 0.0 0.0 0.00 0.00 0.00 38 1010.2
20260507063038 5 172 0.0 0.0 0.00 0.00 0.00 39 1010.3
20260507061536 5 175 0.0 0.0 0.00 0.00 0.00 37 1010.5
20260507060034 6 184 0.0 0.0 0.00 0.00 0.00 35 1010.6
20260507054532 6 210 0.0 3.2 0.00 0.00 0.00 35 1010.6
20260507053032 6 204 0.0 14.5 0.00 0.00 0.00 37 1010.6
20260507051538 5 188 0.0 16.1 0.00 0.00 0.00 42 1010.7
20260507050037 4 198 11.3 14.5 0.00 0.00 0.00 45 1010.8
20260507044528 5 196 0.0 12.9 0.00 0.00 0.00 42 1010.9
20260507043026 7 175 0.0 11.3 0.00 0.00 0.00 36 1011.2
20260507041524 7 158 0.0 9.7 0.00 0.00 0.00 35 1011.2
20260507040023 8 167 0.0 12.9 0.00 0.00 0.00 34 1011.4
20260507034535 8 167 0.0 11.3 0.00 0.00 0.00 34 1011.6
20260507033020 8 167 14.5 19.3 0.00 0.00 0.00 34 1011.8
20260507031518 8 163 6.4 12.9 0.00 0.00 0.00 34 1012.0
20260507030019 8 136 0.0 0.0 0.00 0.00 0.00 33 1012.2
20260507024529 8 147 0.0 0.0 0.00 0.00 0.00 32 1012.3
20260507023014 8 143 0.0 0.0 0.00 0.00 0.00 32 1012.4
20260507021513 9 155 0.0 0.0 0.00 0.00 0.00 32 1012.5
20260507020012 10 156 0.0 0.0 0.00 0.00 0.00 31 1012.6
20260507014519 10 168 0.0 4.8 0.00 0.00 0.00 30 1012.6
20260507013010 10 170 0.0 0.0 0.00 0.00 0.00 30 1012.6
20260507011521 11 184 0.0 1.6 0.00 0.00 0.00 28 1012.6
20260507010016 11 136 0.0 0.0 0.00 0.00 0.00 28 1012.7
20260507004509 11 207 0.0 14.5 0.00 0.00 0.00 28 1012.6
20260507003014 11 180 9.7 16.1 0.00 0.00 0.00 28 1012.8
20260507001506 11 179 6.4 14.5 0.00 0.00 0.00 28 1012.9
20260507000004 12 157 0.0 14.5 0.00 0.00 0.00 27 1013.2
20260506234502 11 100 0.0 0.0 0.00 0.00 0.00 27 1013.5
20260506233001 12 324 0.0 3.2 0.00 0.00 0.00 26 1013.5
20260506231602 12 23 0.0 20.9 0.00 0.00 0.00 27 1013.8
20260506230058 11 229 0.0 17.7 0.00 0.00 0.00 27 1014.0
20260506224558 12 115 0.0 4.8 0.00 0.00 0.00 27 1014.1
20260506223101 11 79 0.0 3.2 0.00 0.00 0.00 26 1014.1
20260506221555 12 236 0.0 1.6 0.00 0.00 0.00 26 1014.3
20260506220053 11 22 0.0 16.1 0.00 0.00 0.00 26 1014.7
20260506214551 12 34 1.6 14.5 0.00 0.00 0.00 25 1014.9
20260506213047 12 152 0.0 11.3 0.00 0.00 0.00 27 1015.3
20260506211552 11 18 0.0 22.5 0.00 0.00 0.00 28 1015.6
20260506210044 11 67 6.4 19.3 0.00 0.00 0.00 27 1015.9
20260506204542 12 297 1.6 12.9 0.00 0.00 0.00 26 1016.0
20260506203039 11 360 4.8 22.5 0.00 0.00 0.00 28 1016.2
20260506201536 11 247 0.0 8.0 0.00 0.00 0.00 31 1016.4
20260506200034 10 19 0.0 3.2 0.00 0.00 0.00 29 1016.8
20260506194536 11 355 0.0 17.7 0.00 0.00 0.00 30 1017.0
20260506193032 10 121 0.0 14.5 0.00 0.00 0.00 30 1017.2
20260506191526 9 112 0.0 20.9 0.00 0.00 0.00 31 1017.3
20260506190025 10 14 1.6 22.5 0.00 0.00 0.00 30 1017.4
20260506184526 10 22 0.0 14.5 0.00 0.00 0.00 31 1017.6
20260506183020 9 28 3.2 24.1 0.00 0.00 0.00 30 1018.0
20260506181517 9 11 0.0 20.9 0.00 0.00 0.00 32 1018.1
20260506180015 8 44 8.0 20.9 0.00 0.00 0.00 31 1018.5
20260506174514 8 29 17.7 29.0 0.00 0.00 0.00 31 1018.6
20260506173011 8 11 4.8 27.4 0.00 0.00 0.00 33 1018.8
20260506171509 7 30 8.0 27.4 0.00 0.00 0.00 34 1019.0
20260506170010 7 5 9.7 27.4 0.00 0.00 0.00 33 1019.3
20260506164507 8 27 6.4 25.7 0.00 0.00 0.00 32 1019.4
20260506163008 7 360 20.9 30.6 0.00 0.00 0.00 32 1019.4
20260506161507 7 343 9.7 25.7 0.00 0.00 0.00 34 1019.6
20260506160006 7 42 0.0 22.5 0.00 0.00 0.00 34 1019.8
20260506154503 7 324 0.0 20.9 0.00 0.00 0.00 33 1020.0
20260506153002 6 5 8.0 27.4 0.00 0.00 0.00 33 1020.1
20260506151502 7 313 4.8 27.4 0.00 0.00 0.00 33 1020.2
20260506150104 7 344 3.2 27.4 0.00 0.00 0.00 33 1020.3